Tracking 18852 objects as of 24-Nov-2017
HD Live streaming from Space Station
objects crossing your sky now

FENGYUN 1C DEB

Track FENGYUN 1C DEB now!
10-day predictions


NORAD ID: 30836
Int'l Code: 1999-025AVW
Perigee: 851.0 km
Apogee: 889.5 km
Inclination: 99.1 °
Period: 102.2 minutes
Semi major axis: 7241 km
RCS: 0.0097 m2 (small)
Launch date: May 10, 1999
Source: People's Republic of China (PRC)
Launch site: Taiyaun Space Center, China (TSC)

Note: This is SATELLITE DEBRIS
aabbcc
Your satellite tracking list
Your tracking list is empty




NASA's NSSDC Master Catalog

Two Line Element Set (TLE):
1 30836U 99025AVW 17326.87489260 +.00000066 +00000-0 +64202-4 0  9998
2 30836 099.0677 345.9897 0026600 247.9601 111.8742 14.08906821205525
Source of the keplerian elements: AFSPC